Wind_Speed
31 30 31 31 30 31 34 37 41 40 40 41 43 45 46 47 49 51 52 53 54 55 56 57 58 59 60 61 62 62 63 63 63 63 62 61 60 60 60 60 60 61 61 61
30 29 32 31 30 32 35 37 40 42 42 45 48 48 49 51 53 55 56 57 58 60 61 62 62 63 63 64 64 64 64 64 63 62 61 60 59 59 59 59 60 60 60 61
31 31 32 31 32 34 37 39 42 45 46 49 50 52 53 55 57 59 60 61 63 64 65 66 67 67 67 67 66 66 65 64 63 61 60 60 59 59 59 60 60 60 61 61
34 34 35 34 37 40 42 43 46 48 50 52 53 55 57 59 61 63 64 66 67 68 69 69 69 69 69 69 68 66 65 64 62 61 60 60 59 59 60 60 61 60 60 60
37 40 41 39 42 45 48 49 51 53 54 56 58 59 61 63 66 67 69 70 71 72 72 72 71 71 70 69 68 66 65 64 62 61 61 60 60 60 60 60 59 59 58 58
40 44 45 45 48 50 53 55 56 57 59 61 63 65 65 68 70 72 73 73 74 74 74 73 73 72 70 68 66 65 64 63 62 61 60 60 59 59 58 58 58 57 57 57
42 46 49 51 53 54 57 59 61 62 64 67 69 70 72 73 74 75 76 76 76 75 75 73 72 71 69 67 65 64 63 61 60 59 59 58 57 57 57 56 56 55 55 54
47 49 51 54 56 58 61 63 64 66 68 70 72 73 74 75 76 77 77 76 76 75 73 71 70 69 66 65 63 62 61 59 58 58 57 57 56 55 54 54 53 53 52 51
51 53 54 57 60 62 64 66 68 70 71 73 74 76 77 78 78 77 77 75 74 73 71 68 67 66 64 63 61 60 59 58 57 56 56 55 55 53 53 52 52 50 49 48
54 55 57 60 62 64 66 68 70 72 74 75 77 78 78 78 77 76 75 73 71 70 68 65 63 62 62 61 60 58 57 56 55 54 53 53 52 52 51 51 49 48 47 46
57 59 61 63 65 67 69 71 73 74 76 77 78 78 78 77 75 73 72 70 68 67 65 63 61 60 60 59 58 57 55 54 53 52 51 50 50 49 49 48 47 46 45 45
60 62 64 66 68 70 71 72 74 76 77 77 77 76 75 74 72 70 68 66 65 63 62 61 59 58 57 56 56 54 53 51 50 49 49 48 47 46 45 45 45 45 45 45
63 65 67 68 70 72 73 74 75 76 77 76 74 73 72 70 67 65 64 63 61 60 59 58 57 56 55 54 53 52 52 50 48 47 46 46 45 44 43 43 43 43 44 44
66 67 68 70 71 72 73 74 74 74 73 72 71 69 67 65 64 62 60 59 58 57 57 56 55 54 53 52 51 50 49 48 47 45 45 45 44 43 43 42 41 41 42 43
67 68 69 70 70 71 72 72 71 70 68 67 66 64 63 62 60 58 57 57 56 56 55 54 53 51 50 50 49 48 47 46 45 44 44 43 42 41 41 41 41 41 41 41
67 67 68 68 69 69 69 68 67 66 65 63 61 60 59 58 57 56 55 56 56 55 53 52 50 49 48 48 47 46 44 44 43 43 42 41 40 40 40 40 40 40 38 37
65 65 66 66 66 66 65 64 64 63 61 59 59 57 56 56 55 54 54 53 53 52 51 50 48 47 47 46 45 44 43 42 42 41 40 40 39 39 39 39 38 37 35 35
65 65 65 65 65 64 62 61 61 59 58 57 56 55 55 55 55 54 53 52 51 49 48 47 45 45 45 44 43 42 41 41 40 39 38 38 39 38 38 37 36 35 34 34
63 63 63 62 62 62 60 59 58 57 56 56 56 55 54 54 54 53 52 51 50 47 43 42 42 42 41 41 40 40 39 39 38 37 37 37 37 36 36 35 34 33 33 32
61 61 60 60 59 59 58 57 56 55 55 55 55 54 53 52 52 50 49 47 46 44 41 40 39 39 39 38 38 37 37 37 36 36 36 36 35 34 33 32 32 31 30 29
60 59 58 57 57 56 56 55 55 53 53 53 53 53 52 50 49 48 47 44 42 41 40 39 39 38 37 36 36 36 36 36 35 34 34 34 34 33 32 31 30 29 28 27
58 57 56 56 55 53 53 53 53 52 52 52 51 51 50 49 47 45 44 43 41 39 38 38 38 37 35 34 33 34 34 34 33 33 33 33 32 31 30 29 28 27 26 25
57 56 55 54 53 52 51 51 51 51 50 50 50 49 49 47 46 44 41 40 39 38 37 36 35 34 33 32 32 32 32 32 31 32 31 31 30 29 28 27 26 25 24 24
56 55 53 52 52 51 50 49 49 48 48 48 48 48 47 45 43 42 41 39 37 36 35 34 33 32 31 30 30 30 30 30 30 30 30 30 29 27 26 25 24 23 23 23
54 53 51 51 50 50 49 48 46 46 46 45 44 44 43 43 42 40 38 36 35 34 33 32 31 29 29 28 29 29 29 28 29 29 29 28 27 26 24 23 22 22 22 22
51 50 49 49 48 47 46 45 45 44 43 42 41 40 40 39 38 37 35 33 32 31 30 29 28 28 27 27 28 28 27 27 28 28 27 27 26 24 22 21 21 21 21 21
48 48 47 46 45 45 44 43 43 42 41 40 39 37 36 36 34 33 32 30 29 28 27 27 26 26 26 26 26 26 27 27 27 26 25 25 23 22 21 20 20 19 19 19
Wind_Direction
299 300 299 302 306 306 305 307 307 310 310 310 308 309 310 310 309 308 308 308 307 306 306 306 305 305 304 304 304 303 302 302 301 300 299 299 298 297 296 296 295 295 295 294
297 298 297 301 304 303 304 305 305 307 308 308 308 308 309 309 308 307 307 307 306 305 305 305 305 305 304 304 304 303 303 302 302 301 300 299 299 298 297 296 296 296 295 295
295 296 297 303 305 304 304 305 305 306 307 307 308 308 308 308 307 307 306 306 305 305 305 305 305 305 304 304 304 303 303 302 301 300 299 299 298 298 297 297 297 296 296 295
297 298 299 305 306 305 304 305 306 306 307 307 307 307 307 306 306 305 305 305 304 304 304 304 304 304 304 304 303 303 302 302 301 300 299 298 298 297 297 297 297 297 297 296
299 300 301 306 306 306 306 307 306 306 306 306 306 305 306 306 305 305 305 304 304 304 304 304 304 304 304 304 303 303 302 301 300 299 299 298 298 298 298 298 298 298 298 297
299 300 303 307 306 305 306 306 306 306 306 306 306 305 305 305 304 304 304 304 304 304 304 304 304 304 304 304 303 302 301 301 300 299 299 298 298 298 299 299 299 300 299 299
298 299 302 304 304 304 305 306 306 306 306 306 306 306 305 305 304 304 304 304 304 304 304 304 304 304 304 304 303 302 302 301 300 299 298 298 299 299 299 300 301 301 301 300
297 299 302 302 303 303 304 304 305 306 305 305 305 304 304 303 303 304 304 304 304 304 305 305 305 304 304 303 303 302 301 301 300 299 299 299 300 300 301 301 302 302 302 301
297 299 301 301 302 303 304 304 304 304 304 303 303 303 303 303 304 304 305 305 305 305 305 305 305 305 304 303 303 302 301 301 300 300 300 301 301 302 302 302 302 302 302 302
296 298 299 300 301 301 302 302 303 303 303 303 304 304 304 304 305 305 305 305 305 305 305 305 305 305 304 304 304 303 303 303 302 302 302 302 303 303 303 303 303 304 304 304
297 299 299 300 301 302 302 303 303 303 304 304 304 304 305 305 305 305 305 305 305 305 305 306 305 306 306 306 306 306 306 305 304 304 304 304 304 304 304 304 305 305 305 305
298 299 300 301 301 301 302 302 303 303 303 304 305 305 305 306 306 306 306 306 306 306 306 306 307 307 307 307 308 308 308 307 306 306 306 306 306 305 305 305 306 306 305 306
299 300 300 301 301 302 302 303 303 304 304 305 305 305 306 306 307 307 307 307 307 307 307 308 308 308 309 309 309 309 309 308 308 308 308 308 308 307 306 306 306 306 306 306
299 300 300 301 302 302 303 303 304 304 305 306 306 306 307 307 308 308 308 308 308 309 309 309 309 309 309 310 310 310 311 310 310 310 310 310 309 309 308 308 307 308 308 308
299 300 301 301 302 302 303 304 305 305 306 306 307 307 307 308 308 309 309 308 309 309 309 310 310 310 311 311 311 312 312 312 312 312 312 311 310 310 310 310 310 310 310 309
300 300 301 302 303 303 304 305 306 306 307 307 307 307 308 309 309 309 309 309 310 310 310 310 311 311 312 312 312 313 313 313 313 313 312 312 311 311 311 312 312 312 312 311
301 301 302 303 303 304 305 306 307 308 308 308 308 308 308 308 309 310 310 311 312 312 311 311 311 312 312 313 314 314 314 314 314 313 313 313 312 313 313 313 314 313 313 312
301 302 303 304 305 305 306 307 307 308 308 308 308 308 308 309 310 310 310 311 311 312 312 311 312 313 313 314 314 315 315 316 316 315 315 315 315 315 315 315 315 314 314 314
303 303 304 304 305 305 306 307 307 308 308 308 309 309 310 310 311 311 312 313 313 313 312 311 312 313 314 314 315 316 316 317 317 317 317 318 318 318 318 318 317 316 316 316
303 303 303 303 304 305 306 306 307 307 308 308 309 309 310 311 312 313 313 314 314 313 313 313 313 314 314 315 315 316 317 318 318 319 320 320 321 321 321 320 320 319 319 319
302 302 302 302 303 304 305 306 306 307 308 308 309 309 310 311 312 313 314 314 314 313 313 313 314 314 314 314 315 316 318 320 320 321 322 322 323 323 323 323 323 323 322 321
301 301 301 301 302 303 304 305 305 306 308 308 309 309 310 311 312 313 314 314 314 314 314 313 314 314 315 315 316 318 320 321 322 324 324 324 325 325 325 325 326 326 325 324
300 300 300 301 301 302 303 304 305 306 307 308 308 309 309 311 312 313 313 313 313 313 313 314 314 315 316 316 317 320 321 322 323 325 326 327 327 327 327 328 329 329 329 329
299 299 300 300 301 302 303 303 304 306 307 308 308 308 309 310 311 312 313 314 313 313 314 314 315 316 317 318 320 322 323 323 325 326 326 328 328 328 328 329 330 331 332 332
297 298 299 299 300 301 302 302 303 305 306 307 307 308 308 310 311 313 313 313 313 313 314 315 316 316 318 319 320 323 324 325 326 327 327 328 329 329 329 329 329 330 332 333
296 297 298 298 300 300 301 302 304 306 306 306 307 307 308 309 310 312 313 314 314 315 316 316 316 317 318 319 320 322 324 326 327 329 329 329 330 331 331 331 331 332 333 334
295 295 296 297 298 299 300 302 304 306 306 306 307 308 308 309 310 311 312 314 315 316 317 317 318 318 319 320 321 323 325 326 327 329 330 330 332 333 333 334 335 336 338 338
Height
5769 5767 5763 5761 5760 5756 5751 5747 5742 5739 5736 5732 5726 5722 5718 5712 5706 5700 5694 5688 5682 5675 5669 5662 5655 5648 5641 5634 5626 5619 5611 5604 5597 5589 5582 5575 5568 5561 5554 5548 5541 5534 5528 5522
5762 5759 5756 5754 5753 5749 5745 5740 5735 5731 5727 5722 5717 5712 5707 5701 5694 5688 5682 5675 5668 5661 5654 5647 5640 5632 5625 5618 5610 5602 5594 5587 5579 5572 5565 5558 5551 5544 5537 5531 5524 5517 5511 5504
5754 5751 5748 5748 5745 5741 5737 5732 5727 5722 5719 5712 5707 5701 5695 5689 5682 5675 5668 5661 5653 5646 5638 5630 5623 5615 5608 5600 5592 5584 5577 5569 5562 5555 5548 5541 5534 5527 5521 5514 5507 5501 5494 5487
5743 5742 5740 5742 5736 5731 5726 5723 5717 5712 5707 5701 5696 5690 5683 5675 5667 5660 5653 5645 5637 5629 5621 5614 5605 5597 5590 5582 5574 5567 5559 5551 5544 5537 5531 5524 5517 5510 5503 5496 5490 5483 5476 5469
5735 5731 5729 5730 5725 5719 5714 5711 5706 5700 5695 5689 5683 5677 5670 5661 5652 5644 5636 5628 5620 5611 5603 5595 5587 5579 5572 5564 5556 5548 5541 5534 5526 5519 5512 5506 5499 5492 5485 5479 5472 5465 5458 5451
5727 5721 5719 5720 5713 5707 5703 5698 5693 5687 5681 5674 5667 5661 5656 5646 5637 5628 5619 5610 5602 5594 5585 5577 5568 5560 5553 5545 5538 5530 5523 5516 5508 5501 5494 5488 5481 5474 5467 5460 5454 5448 5441 5434
5718 5712 5710 5707 5701 5696 5691 5686 5679 5672 5666 5659 5651 5643 5636 5628 5619 5610 5601 5592 5583 5575 5567 5558 5549 5541 5534 5527 5519 5512 5505 5498 5490 5483 5476 5470 5463 5457 5450 5444 5438 5431 5424 5418
5707 5703 5701 5694 5688 5683 5678 5671 5664 5658 5650 5643 5636 5627 5619 5610 5601 5592 5583 5574 5565 5556 5549 5540 5530 5522 5516 5509 5501 5494 5487 5480 5473 5466 5459 5453 5447 5440 5434 5427 5421 5415 5409 5402
5697 5694 5688 5681 5674 5669 5663 5657 5650 5642 5635 5626 5618 5610 5601 5592 5583 5574 5564 5555 5546 5538 5531 5523 5513 5504 5497 5491 5483 5477 5470 5464 5457 5450 5443 5437 5430 5424 5418 5412 5406 5400 5394 5388
5684 5681 5675 5669 5662 5657 5650 5642 5634 5626 5617 5608 5599 5591 5582 5574 5564 5555 5546 5537 5528 5520 5513 5506 5497 5488 5480 5473 5466 5460 5454 5447 5441 5434 5429 5422 5415 5409 5403 5397 5391 5385 5379 5374
5671 5667 5661 5655 5647 5641 5634 5625 5617 5609 5599 5590 5581 5572 5563 5555 5546 5537 5528 5520 5511 5503 5495 5488 5481 5473 5465 5457 5451 5445 5439 5432 5426 5419 5413 5408 5401 5395 5389 5383 5376 5371 5366 5360
5657 5652 5646 5640 5632 5624 5617 5609 5601 5592 5583 5573 5562 5554 5545 5537 5528 5520 5511 5503 5495 5487 5480 5473 5465 5458 5451 5443 5436 5430 5424 5418 5412 5405 5399 5393 5388 5382 5376 5370 5364 5358 5352 5347
5642 5636 5629 5622 5615 5607 5599 5591 5582 5573 5564 5555 5546 5537 5528 5520 5512 5504 5496 5487 5479 5472 5465 5458 5451 5444 5437 5430 5423 5416 5410 5404 5398 5392 5386 5380 5374 5369 5364 5359 5352 5346 5340 5334
5625 5619 5613 5606 5599 5590 5582 5573 5565 5556 5547 5538 5529 5521 5513 5505 5498 5490 5481 5473 5466 5459 5451 5444 5437 5431 5424 5417 5410 5404 5398 5391 5385 5379 5373 5367 5362 5356 5350 5345 5340 5335 5328 5322
5609 5602 5596 5589 5581 5573 5565 5556 5548 5540 5532 5524 5515 5506 5498 5491 5484 5476 5468 5460 5453 5446 5439 5431 5424 5418 5411 5405 5398 5392 5386 5380 5374 5368 5362 5356 5350 5344 5339 5333 5328 5323 5317 5311
5593 5586 5578 5571 5564 5556 5548 5539 5532 5524 5517 5509 5501 5493 5485 5477 5470 5463 5456 5447 5440 5434 5426 5419 5413 5406 5400 5393 5387 5381 5375 5369 5363 5357 5351 5345 5339 5334 5328 5322 5317 5311 5306 5300
5576 5569 5562 5555 5547 5540 5532 5524 5516 5508 5501 5494 5487 5480 5472 5465 5458 5451 5444 5436 5428 5421 5414 5407 5401 5395 5389 5382 5376 5371 5365 5359 5353 5347 5341 5335 5329 5324 5318 5312 5306 5301 5296 5291
5558 5551 5544 5537 5530 5524 5517 5510 5502 5494 5487 5480 5473 5466 5459 5452 5445 5438 5431 5424 5418 5411 5403 5396 5390 5384 5378 5372 5366 5361 5355 5349 5343 5337 5332 5326 5320 5314 5308 5303 5297 5292 5287 5282
5541 5535 5529 5522 5515 5508 5502 5495 5489 5482 5475 5467 5460 5454 5447 5440 5432 5425 5419 5412 5405 5399 5394 5387 5381 5375 5369 5363 5357 5352 5346 5341 5335 5329 5323 5317 5311 5306 5300 5294 5289 5284 5279 5273
5526 5520 5514 5507 5501 5494 5488 5481 5475 5469 5462 5455 5448 5441 5435 5429 5421 5414 5408 5401 5393 5386 5382 5376 5371 5365 5360 5354 5349 5343 5338 5332 5327 5321 5315 5310 5304 5298 5293 5287 5282 5276 5271 5266
5511 5505 5499 5493 5488 5482 5475 5468 5461 5456 5450 5443 5435 5429 5423 5417 5410 5403 5396 5391 5385 5378 5372 5367 5361 5356 5351 5346 5341 5336 5330 5325 5319 5314 5308 5302 5297 5291 5286 5281 5275 5270 5265 5260
5496 5490 5485 5479 5473 5468 5462 5455 5449 5442 5437 5431 5424 5417 5411 5405 5399 5393 5387 5380 5375 5369 5364 5358 5353 5347 5342 5338 5333 5328 5323 5318 5312 5307 5301 5296 5290 5285 5280 5275 5269 5264 5259 5254
5481 5475 5469 5464 5458 5454 5449 5443 5436 5430 5424 5418 5412 5405 5399 5394 5388 5382 5377 5372 5365 5360 5355 5349 5344 5339 5334 5330 5326 5321 5316 5311 5306 5301 5296 5290 5285 5280 5275 5270 5265 5260 5255 5250
5465 5460 5455 5450 5444 5439 5435 5430 5424 5419 5413 5407 5400 5394 5388 5383 5379 5373 5366 5361 5356 5351 5346 5341 5337 5332 5328 5323 5319 5315 5310 5305 5300 5295 5290 5285 5280 5275 5270 5266 5261 5256 5252 5247
5449 5445 5440 5435 5430 5426 5421 5417 5412 5407 5401 5396 5390 5384 5378 5372 5367 5363 5358 5353 5348 5343 5339 5334 5330 5325 5321 5317 5313 5309 5305 5300 5295 5290 5285 5280 5276 5271 5266 5262 5258 5253 5249 5245
5434 5430 5426 5421 5416 5412 5407 5403 5399 5395 5390 5385 5380 5375 5369 5364 5359 5354 5349 5345 5340 5336 5332 5328 5324 5320 5316 5312 5308 5304 5299 5295 5290 5285 5281 5276 5272 5267 5263 5259 5254 5250 5246 5242
5420 5416 5412 5408 5404 5399 5395 5391 5387 5383 5378 5373 5369 5365 5360 5355 5351 5346 5342 5338 5334 5330 5326 5322 5318 5314 5310 5306 5303 5299 5294 5290 5286 5281 5277 5272 5268 5264 5260 5256 5252 5248 5244 5240